Location: Newark
(41.5333°N, 14.5500°E)
Time: 19:47:50
(UTC+00:00)

Envisat - Pass Details

Date: 27 January 2020
Orbit: 764 x 766 km, 98.1° (Epoch: 19 February)

Event Time Altitude Azimuth Distance (km) Brightness Sun altitude
Rises 04:58:05 0° 23° (NNE) 3,240 6.4 -15.2°
Reaches altitude 10° 05:00:39 10° 33° (NNE) 2,309 5.8 -14.7°
Maximum altitude 05:05:09 31° 96° (E) 1,315 5.0 -13.9°
Drops below altitude 10° 05:09:37 10° 158° (SSE) 2,293 6.0 -13.1°
Sets 05:12:09 0° 168° (SSE) 3,214 6.6 -12.6°
